Retour au catalogue

STARLINK-32800

ActifCommunicationsVLEO
NORAD 62743·PAYLOAD·🇺🇸 United States

Lancé Jan 21, 2025 depuis Cape Canaveral Space Force Station

Loading…

Prochains Passages (prochaines 24 heures)

TLE

FraisSource: CelesTrak SupGP

Époque: Sep 15, 2026, 02:59 UTC

1 62743C 25014J   26258.12479167  .00001862  00000+0  67441-4 0  2584
2 62743  42.9995 171.9025 0001329 268.9586 108.2454 15.27572603    19

Suivez STARLINK-32800 en temps réel avec AllMySat

Download on the App Store